This is the latest recevied weather packets stored in our database for station/object OZ0AJ-13. If no packets are shown the sender has not sent any weather packets the latest 10 day(s).
| Time | Temp. | Humidity | Pressure | Rain* | Wind** | Luminosity | Snow |
|---|---|---|---|---|---|---|---|
| 1788158420 | 60° F | 95% | 754.1 mmHg | 0 in | - | - | - |
| 1788157816 | 62° F | 97% | 753.7 mmHg | 0 in | - | - | - |
| 1788157232 | 62° F | 98% | 753.7 mmHg | 0 in | - | - | - |
| 1788156628 | 62° F | 98% | 753.6 mmHg | 0 in | - | - | - |
| 1788156024 | 62° F | 98% | 753.8 mmHg | 0 in | - | - | - |
| 1788155420 | 62° F | 98% | 754 mmHg | 0 in | - | - | - |
| 1788154816 | 62° F | 98% | 754 mmHg | 0 in | - | - | - |
| 1788154232 | 62° F | 98% | 754 mmHg | 0 in | - | - | - |
| 1788153628 | 62° F | 98% | 754.2 mmHg | 0 in | - | - | - |
| 1788153024 | 61° F | 98% | 754.3 mmHg | 0.02 in | - | - | - |
| 1788152420 | 61° F | 98% | 754.3 mmHg | 0.02 in | - | - | - |
| 1788151816 | 61° F | 98% | 754.3 mmHg | 0.02 in | - | - | - |
| 1788151232 | 61° F | 98% | 754.3 mmHg | 0.02 in | - | - | - |
| 1788150628 | 60° F | 97% | 754.3 mmHg | 0.03 in | - | - | - |
| 1788150024 | 60° F | 97% | 754.5 mmHg | 0.04 in | - | - | - |
| 1788149420 | 60° F | 96% | 754.6 mmHg | 0.02 in | - | - | - |
| 1788148816 | 60° F | 96% | 754.6 mmHg | 0.02 in | - | - | - |
| 1788148232 | 60° F | 96% | 754.7 mmHg | 0.02 in | - | - | - |
| 1788147628 | 60° F | 96% | 754.9 mmHg | 0.02 in | - | - | - |
| 1788147024 | 60° F | 95% | 754.9 mmHg | 0.01 in | - | - | - |
| 1788146420 | 59° F | 95% | 754.9 mmHg | 0 in | - | - | - |
| 1788145816 | 59° F | 95% | 754.9 mmHg | 0 in | - | - | - |
| 1788145233 | 60° F | 95% | 755 mmHg | 0 in | - | - | - |
| 1788144629 | 60° F | 95% | 755.1 mmHg | 0 in | - | - | - |
| 1788144025 | 60° F | 95% | 755.2 mmHg | 0 in | - | - | - |
* Rain latest hour (hover to see other rain measurements)
** Current wind speed in m/s (hover to see current wind gust speed)